Weather History for Elkins, WV

Change the Weather History Date:

Sunday, April 21, 2013

  Actual Average Record
Temperature  
Mean Temperature 41 °F 51 °F  
Max Temperature 57 °F 65 °F 83 °F (1954)
Min Temperature 25 °F 38 °F 19 °F (1904)
Degree Days  
Heating Degree Days 24 14  
Month to date heating degree days 276 352  
Since 1 July heating degree days 5450 5453  
Cooling Degree Days 0 0  
Month to date cooling degree days 3 0  
Year to date cooling degree days 3 0  
Moisture  
Dew Point 21 °F    
Average Humidity 56    
Maximum Humidity 92    
Minimum Humidity 20    
Precipitation  
Precipitation 0.00 in 0.13 in 1.27 in (2002)
Month to date precipitation 2.30 2.63  
Year to date precipitation 12.15 12.92  
Snow  
Snow 0.00 in - - ()
Month to date snowfall 0.0  
Since 1 September snowfall 77.5  
Snow Depth 0.00 in    
Sea Level Pressure  
Sea Level Pressure 30.49 in    
Wind  
Wind Speed 3 mph (East)    
Max Wind Speed 14 mph    
Max Gust Speed 18 mph    
Visibility 10 miles    
Events      
T = Trace of Precipitation, MM = Missing Value Source: NWS Daily Summary

Daily Weather History Graph

Daily Weather History Graph

Search for Another Location

Airport:

Trip Planner

Search our weather history database for the weather conditions in past years. The results will help you decide how hot, cold, wet, or windy it might be!

Date:

Astronomy

Apr. 21, 2013 Rise Set
Actual Time 6:34 AM EDT 8:02 PM EDT
Civil Twilight 6:06 AM EDT 8:30 PM EDT
Nautical Twilight 5:32 AM EDT 9:04 PM EDT
Astronomical Twilight 4:57 AM EDT 9:39 PM EDT
Moon 3:48 PM EDT (4/21) 3:52 AM EDT (4/21)
Length of Visible Light 14h 24m
Length of Day
13h 28m
Waxing Gibbous, 79% of the Moon is Illuminated
Apr 21
Waxing Gibbous
Apr 25
Full
May 2
Last Quarter
May 9
New
May 18
First Quarter

Hourly Weather History & Observations

Time (EDT) Temp. Windchill Dew Point Humidity Pressure Visibility Wind Dir Wind Speed Gust Speed Precip Events Conditions
12:51 AM 30.9 °F - 25.0 °F 79% 30.44 in 10.0 mi Calm Calm - N/A   Clear
1:51 AM 28.9 °F - 25.0 °F 85% 30.45 in 10.0 mi Calm Calm - N/A   Clear
2:51 AM 27.0 °F - 24.1 °F 89% 30.45 in 10.0 mi Calm Calm - N/A   Clear
3:51 AM 27.0 °F - 23.0 °F 85% 30.46 in 10.0 mi Calm Calm - N/A   Clear
4:51 AM 27.0 °F - 24.1 °F 89% 30.48 in 10.0 mi Calm Calm - N/A   Clear
5:51 AM 26.1 °F - 23.0 °F 88% 30.49 in 10.0 mi Calm Calm - N/A   Clear
6:51 AM 25.0 °F - 21.9 °F 88% 30.52 in 10.0 mi Calm Calm - N/A   Clear
7:51 AM 30.0 °F - 26.1 °F 85% 30.55 in 10.0 mi Calm Calm - N/A   Clear
8:51 AM 35.1 °F - 26.1 °F 70% 30.56 in 10.0 mi Calm Calm - N/A   Clear
9:51 AM 39.9 °F - 26.1 °F 58% 30.56 in 10.0 mi Calm Calm - N/A   Clear
10:51 AM 44.1 °F - 16.0 °F 32% 30.56 in 10.0 mi Calm Calm - N/A   Clear
11:51 AM 46.9 °F - 17.1 °F 30% 30.55 in 10.0 mi East 3.5 mph - N/A   Clear
12:51 PM 51.1 °F - 17.1 °F 26% 30.52 in 10.0 mi Variable 6.9 mph - N/A   Clear
1:51 PM 52.0 °F - 14.0 °F 22% 30.51 in 10.0 mi Calm Calm - N/A   Clear
2:51 PM 55.0 °F - 16.0 °F 22% 30.48 in 10.0 mi Variable 6.9 mph - N/A   Clear
3:51 PM 55.9 °F - 16.0 °F 21% 30.44 in 10.0 mi Variable 3.5 mph - N/A   Clear
4:51 PM 55.9 °F - 15.1 °F 20% 30.43 in 10.0 mi North 3.5 mph - N/A   Clear
5:51 PM 55.0 °F - 19.0 °F 24% 30.43 in 10.0 mi North 8.1 mph - N/A   Clear
6:51 PM 53.1 °F - 23.0 °F 31% 30.44 in 10.0 mi ENE 4.6 mph - N/A   Clear
7:51 PM 50.0 °F - 21.9 °F 33% 30.45 in 10.0 mi Variable 5.8 mph - N/A   Clear
8:51 PM 48.0 °F - 21.0 °F 34% 30.46 in 10.0 mi Calm Calm - N/A   Clear
9:51 PM 46.9 °F - 23.0 °F 39% 30.48 in 10.0 mi Calm Calm - N/A   Clear
10:51 PM 46.0 °F 43.1 °F 25.0 °F 44% 30.48 in 10.0 mi SSE 5.8 mph - N/A   Clear
11:51 PM 44.1 °F 40.1 °F 26.1 °F 49% 30.48 in 10.0 mi SSE 6.9 mph - N/A   Clear